Dewpoint
33 33 33 33 32 34 35 35 31 26 26 30 33 32 34 35 35 37 38 39 40 39 40 41 42 43 43 39 41 42 46 50 51 53 53 51 50 48
32 26 26 28 28 29 29 31 32 30 25 33 30 31 32 25 27 31 35 39 39 38 37 39 41 42 41 42 41 41 43 46 49 50 49 48 47 46
25 25 25 26 25 25 26 26 26 27 25 26 30 30 24 23 24 26 27 29 36 39 37 37 38 40 40 40 41 41 41 45 45 46 46 46 46 46
24 24 24 22 23 23 23 24 24 25 24 23 25 24 23 23 23 24 24 25 28 31 36 38 37 38 39 39 39 40 41 42 42 42 43 42 40 40
24 24 23 23 22 22 23 23 24 25 26 25 24 24 24 23 23 24 25 25 24 27 29 33 36 38 39 37 38 40 41 40 38 38 38 38 38 37
25 24 23 22 21 22 21 24 25 26 26 25 24 22 22 23 23 22 22 23 23 22 24 31 33 34 37 39 38 38 40 40 38 37 36 35 36 36
24 23 23 23 25 22 19 20 22 23 25 25 24 24 22 21 20 21 21 22 23 24 25 28 29 30 30 32 33 37 39 39 39 38 37 36 36 36
24 24 23 24 23 22 23 24 23 22 22 23 23 23 23 21 21 21 21 21 20 24 25 24 27 27 28 29 31 33 35 37 38 38 38 37 37 37
24 23 20 18 21 21 23 23 24 26 26 26 24 23 23 23 22 21 21 21 21 23 23 22 23 26 28 26 30 32 33 34 35 36 37 37 36 35
20 20 20 20 21 21 23 26 23 24 26 25 26 26 25 25 24 24 24 25 24 25 25 24 21 22 25 27 29 30 33 34 35 35 35 35 34 34
20 20 20 20 23 26 26 24 23 23 24 25 24 25 26 28 29 28 26 25 20 23 24 23 21 19 21 23 25 29 32 33 34 35 36 35 35 34
20 19 21 22 25 25 25 24 22 21 22 23 23 23 25 24 24 24 23 22 21 18 21 22 22 20 16 20 21 23 24 32 34 34 35 35 35 32
19 20 21 24 23 25 25 25 25 25 25 26 26 26 25 25 25 24 24 23 21 21 23 24 20 20 20 20 20 22 22 22 24 27 34 35 36 35
21 21 23 21 23 24 24 26 25 25 24 23 24 24 25 26 27 28 29 29 28 26 26 26 25 23 22 19 19 21 20 19 20 21 22 29 32 34
20 20 20 20 20 21 23 23 23 22 21 21 21 23 25 27 28 29 30 30 30 32 31 31 28 26 27 23 21 20 20 21 19 22 21 24 26 30
17 17 17 20 18 19 19 20 21 22 21 20 21 23 25 26 26 28 27 29 28 26 29 31 31 30 28 28 26 23 24 24 23 25 23 21 24 30
10 8 11 14 14 15 16 17 17 18 17 19 19 19 21 23 25 26 26 26 23 24 26 27 30 31 30 30 27 25 23 23 22 23 25 23 23 30
10 4 1 5 10 14 13 14 15 14 15 16 16 17 18 20 22 23 23 24 23 23 23 25 28 28 28 27 30 27 26 27 27 27 29 28 26 23
4 1 -4 1 4 13 13 13 12 12 13 13 14 14 15 18 20 20 21 22 22 23 22 20 21 24 24 21 20 26 25 27 26 26 26 26 23 23
6 2 -1 0 5 11 12 11 10 8 8 9 10 11 12 14 16 18 19 16 18 20 18 18 18 18 16 13 16 12 23 12 12 15 17 15 19 25
5 6 -0 3 3 5 1 5 4 6 5 3 6 7 8 11 14 15 15 14 14 16 15 15 16 19 20 13 9 9 14 23 18 14 13 17 15 18
0 5 5 3 -1 -1 -5 -5 1 2 5 5 4 3 5 8 11 12 13 10 11 10 13 16 19 22 17 18 12 3 12 11 17 24 24 20 14 11
0 3 -1 -4 -3 -4 2 -4 -4 -6 2 4 4 5 3 5 9 9 9 9 11 10 12 14 16 18 18 20 14 12 14 10 12 15 13 22 25 25
Lifted_Index
5 5 5 5 5 5 5 5 5 5 5 5 5 5 5 6 6 6 6 6 7 8 7 6 6 6 7 7 7 7 6 5 4 4 5 6 7 8
5 5 5 5 5 6 6 6 6 6 6 6 6 6 6 6 6 6 6 6 6 7 7 7 6 7 7 8 8 8 7 6 5 5 5 6 7 8
6 6 6 6 6 7 7 7 8 8 7 7 7 6 6 6 7 6 6 6 6 6 7 7 7 7 8 8 9 8 8 7 6 5 5 6 7 7
6 6 6 7 7 8 8 8 8 8 8 8 7 7 7 7 7 7 7 7 7 7 6 6 6 7 7 8 9 9 8 8 8 7 6 7 7 8
6 7 7 7 8 8 8 9 9 8 8 8 8 7 7 7 8 8 8 8 8 7 7 6 6 6 7 8 9 9 9 9 9 9 9 9 9 9
7 7 8 8 8 9 9 9 8 8 8 8 8 7 7 7 8 8 8 9 9 8 7 6 6 6 6 7 8 8 9 9 9 9 10 10 11 11
8 8 8 9 9 9 9 9 8 8 8 7 7 8 7 7 7 8 9 9 9 9 8 7 6 6 6 6 7 7 8 8 8 9 10 10 11 12
9 9 9 9 9 9 9 9 8 8 7 7 7 8 8 8 8 8 9 9 9 9 9 8 7 6 6 7 7 7 7 8 8 9 9 10 11 11
10 10 10 10 10 10 9 9 8 7 7 7 7 8 8 8 8 8 9 9 10 10 10 9 8 8 7 8 8 8 8 8 8 8 9 9 10 10
10 10 10 10 10 10 9 8 8 7 7 7 7 8 8 8 8 8 9 10 10 10 10 9 9 9 9 9 9 9 8 8 8 8 9 9 10 10
10 10 10 10 10 10 9 8 8 7 7 7 8 8 8 8 8 9 9 10 10 10 10 10 10 9 9 9 10 10 10 9 9 9 9 9 9 10
10 10 10 11 10 10 9 9 8 8 7 7 8 8 8 8 9 9 10 10 10 10 10 10 10 10 9 10 10 10 10 10 10 9 9 9 9 10
10 10 11 11 11 11 10 10 9 8 8 8 8 8 8 8 9 10 10 11 10 10 10 10 10 10 10 10 10 10 10 10 10 10 9 9 9 9
11 11 11 12 11 11 11 10 10 9 9 8 8 8 9 9 9 10 10 11 10 10 10 10 10 10 10 10 10 10 10 10 10 9 9 9 9 9
12 12 12 12 12 12 12 11 11 11 10 10 9 10 10 9 10 10 10 10 10 10 10 10 10 10 10 10 10 10 10 10 9 9 9 9 9 9
12 12 12 12 12 12 12 12 12 12 11 11 11 11 10 10 10 10 10 10 10 10 10 10 10 10 11 11 11 10 10 9 9 9 9 9 9 9
12 12 12 12 12 12 13 13 13 13 12 12 12 11 11 11 10 10 10 10 10 10 10 10 10 11 11 11 11 11 10 9 8 8 8 8 9 9
12 12 12 11 12 12 13 13 13 13 13 13 12 12 12 11 11 11 10 10 10 10 10 10 10 10 11 11 11 10 9 8 7 7 7 7 8 8
11 11 12 12 12 12 13 13 14 14 14 13 13 13 12 12 12 11 11 11 10 10 10 10 10 10 10 10 10 10 9 8 7 7 7 7 7 8
10 11 11 12 13 13 13 13 14 14 14 14 13 13 13 13 12 12 11 11 11 10 10 10 10 10 10 10 10 10 10 9 8 8 7 7 7 8
10 10 11 12 13 13 13 14 14 14 14 14 14 14 14 13 13 12 12 12 11 11 10 10 11 11 10 10 9 9 10 10 10 9 9 8 8 7
10 10 11 12 12 13 13 13 13 14 14 14 14 14 14 14 14 13 13 13 12 11 11 11 11 11 11 10 9 9 10 10 11 11 10 10 9 8
10 10 11 11 12 12 12 13 13 13 14 14 14 15 15 14 14 14 14 13 13 12 11 11 12 11 11 10 10 10 10 10 11 11 11 11 10 10